Regional Weather Roundup
Issued by NWS Upton, NY

Current Version | Previous Version | Graphics & Text | Print | Product List | Glossary Off
Versions: 1 2 3 4 5 6 7 8 9 10 11 12 13 14 15 16 17 18 19 20 21 22 23 24 25 26 27

000
ASUS41 KOKX 251805
RWROKX

Regional Weather Roundup
National Weather Service New York NY
200 PM EDT WED APR 25 2018

Note: "FAIR" indicates few or no clouds below 12,000 feet with no
significant weather and/or obstructions to visibility.

NYZ071-072-176-178-NJZ106-104-251900-
New York City Metro Area

CITY           SKY/WX    TMP DP  RH WIND       PRES   REMARKS
Central Park   CLOUDY    60  59  96 VRB5      29.78F FOG
Bronx Bot Gard   N/A     57  55  94 E5        29.78S
Bronx Lehman C   N/A     55  55 100 E9          N/A
LaGuardia Arpt CLOUDY    60  58  92 E14       29.75F FOG
Queens College   N/A     57  57 100 SE13        N/A
Kennedy Intl   DRZL/FOG  56  56 100 E17G23    29.76F VSB 1/2
Breezy Point     N/A     50 N/A N/A E12         N/A
Brooklyn Coll    N/A     55  54  94 E14         N/A
Staten Island    N/A     54  54 100 SE14        N/A
Newark/Liberty DRZL/FOG  58  58 100 SE10      29.75F VSB 3/4
Teterboro      DRIZZLE   59  58  96 NE5       29.74F FOG
$$

NYZ177-179-078>081-251900-
Long Island New York

CITY           SKY/WX    TMP DP  RH WIND       PRES   REMARKS
Jones Beach      N/A     52 N/A N/A E15G21      N/A
Wantagh          N/A     54  54 100 E12         N/A
Hempstead        N/A     57  55  94 SE3       29.79F
Matinecock Pt    N/A     59 N/A N/A SE12        N/A
Farmingdale    FOG       56  56 100 SE16G23   29.76F VSB 3/4
MacArthur/ISP  DRZL/FOG  57  57 100 SE20      29.77F VSB 1
Stony Brook      N/A     59  57  94 SE10        N/A
Shirley        LGT RAIN  56  56 100 SE9G17    29.79F FOG
Mt Sinai Harb    N/A    N/A N/A N/A SE17G24     N/A
Westhampton    LGT RAIN  55  53  93 SE14G23   29.80F FOG
East Hampton   RAIN      51  51  98 E18G25    29.81F
Southold         N/A     57  55  94 SE16        N/A
Montauk          N/A     53  52  96 SE9G22    29.84F
$$

NYZ052-065-067-251900-
Hudson Valley

CITY           SKY/WX    TMP DP  RH WIND       PRES   REMARKS
White Plains   FOG       56  55  97 E9        29.77F VSB 3/4
Larchmont Harb   N/A     48 N/A N/A N16         N/A
Croton On Huds   N/A     57 N/A N/A E1          N/A
Somers           N/A     57  55  94 E9          N/A
Brewster         N/A     57  57 100 SE5         N/A
Newburgh       LGT RAIN  57  57 100 E6        29.79F FOG
Montgomery     LGT RAIN  56  55  97 N9        29.77F FOG
Otisville        N/A     54  54 100 NE6         N/A
Warwick          N/A     59  59 100 E6          N/A
Suffern          N/A     57  57 100 NE3         N/A
Poughkeepsie   CLOUDY    57  55  93 NW7       29.78F FOG
Albany         LGT RAIN  55  52  89 N6        29.84F FOG
$$

NJZ001-105-106-008-010-013-015-019>022-104-251900-
New Jersey

CITY           SKY/WX    TMP DP  RH WIND       PRES   REMARKS
Newark/Liberty DRZL/FOG  58  58 100 SE10      29.75F VSB 3/4
Teterboro      DRIZZLE   59  58  96 NE5       29.74F FOG
Caldwell       LGT RAIN  57  57 100 E8        29.76F VSB 1
Somerville     CLOUDY    59  58  96 E5        29.72F
Linden         RAIN      55  54  97 SE9       29.75F VSB 1
Perth Amboy      N/A     54 N/A N/A E10         N/A
Sussex         LGT RAIN  58  57  97 N9        29.76  FOG
Andover          N/A     58  57  97 VRB5      29.75F
Trenton        CLOUDY    61  59  93 E8        29.70F FOG
Millville      CLOUDY    66  60  81 VRB5      29.69F
Atlantic City  CLOUDY    64  60  87 SW7       29.70
Wrightstown    CLOUDY    61  60  96 SE6       29.69
Toms River     CLOUDY    58  57  97 SE6       29.72F FOG
Belmar         FOG       56  56 100 SE9       29.74F VSB 1/4
$$

PAZ047>061-062-071-251900-
Eastern Pennsylvania

CITY           SKY/WX    TMP DP  RH WIND       PRES   REMARKS
Philadelphia   CLOUDY    65  60  84 E7        29.71
Allentown      CLOUDY    60  56  86 NE8       29.73F FOG
Scranton       CLOUDY    60  56  86 NE3       29.74F
$$

CTZ002-004>006-009-010-012-RIZ004-006-007-MAZ004-011-015-251900-
Southern New England

 In CT

CITY           SKY/WX    TMP DP  RH WIND       PRES   REMARKS
Bradley Intl   LGT RAIN  58  57  97 SE7       29.85F FOG
Hartford       LGT RAIN  58  56  93 SE6       29.83F FOG
Danbury        LGT RAIN  58  57  97 SE5       29.80F FOG
Wtrbury/Oxford LGT RAIN  55  54  96 SE10      29.82F FOG
Norwalk Harbor   N/A     50 N/A N/A NE21        N/A
Bridgeport     LGT RAIN  51  50  96 NE17      29.80F FOG
Meriden        LGT RAIN  57  55  93 VRB5      29.83F FOG
New Haven      LGT RAIN  55  52  89 E10       29.81F FOG
Chester        LGT RAIN  54  54 100 SE12G17   29.83F VSB 1/4
Groton         FOG       51  51 100 E17G29    29.84F VSB 1
Willimantic    LGT RAIN  58  55  90 SE6       29.86F FOG

 In RI

CITY           SKY/WX    TMP DP  RH WIND       PRES   REMARKS
Providence     RAIN      55  55 100 SE15      29.91F FOG
Block Island   LGT RAIN  51  51 100 SE24G30   29.86F FOG
Westerly       CLOUDY    52  52 100 E15G36    29.87F FOG

In MA

CITY           SKY/WX    TMP DP  RH WIND       PRES   REMARKS
Boston         LGT RAIN  52  51  97 E15       29.94  FOG
Worcester      RAIN      53  53 100 SE10      29.89F FOG
Westfield      LGT RAIN  55  55 100 N6        29.86  FOG
Provincetown   LGT RAIN  53  52  96 SE16G23   29.98F
Nantucket      LGT RAIN  51  51 100 SE21      29.96F FOG
$$

ANZ330-335-338-340-345-350-353-355-251900-
Coastal Marine Observations


STATION/POSITION TIME  SKY/WX   TEMP    WIND        PRES    VSBY  WAVE
                                AIR SEA DIR/SP/G                  HT/PER
                 (UTC)          (F)     (DEG/KT/KT) (MB)    (MI)  (FT/S)
NY Harb Entrance 1750            50 46  110/ 14/ 17 1007.0          7/11
20 S Fire Island 1750            50 44  120/ 14/ 17 1007.2          9/11
23 SSW Montauk P 1750            49 44  130/ 17/ 21 1009.2         10/10
15 E Barnegat Li 1730               46                N/A           8/11
Hudson Canyon    1750            52 45  160/ 10/ 12 1007.2         12/10
Kings Point      1736            59 47  180/  9/ 14 1008.7
Execution Rocks  NOT AVBL
Western LI Sound NOT AVBL
Central LI Sound 1745            53     120/ 16/ 19   N/A           1
Robbins Reef     1736            57     110/ 19/ 25 1007.8
$$


>>>>>>>>>>>>>>>>>>>>>>>>>>>> KEY <<<<<<<<<<<<<<<<<<<<<<<<<<<
>                                                          <
>     SKY/WX - Sky Condition/Present Weather               <
>     TMP    - Temperature in Fahrenheit                   <
>     DP     - Dew Point in Fahrenheit                     <
>     RH     - Relative Humidity in Percent                <
>     WIND   - Direction (from) and Speed in MPH           <
>     PRES   - Mean Sea Level Pressure (inches of Hg)      <
>     WCI    - Wind Chill Index                            <
>     VSB    - Visibility in Miles                         <
>     HX     - Heat Index                                  <
>     TC     - Temperature in Celsius                      <
>     VRB    - Varibale Wind Direction                     <
>                                                          <
>>>>>>>>>>>>>>>>>>>>>>>>>>>> KEY <<<<<<<<<<<<<<<<<<<<<<<<<<<




USA.gov is the U.S. government's official web portal to all federal, state and local government web resources and services.